[Iaude] MPEC Q93: 2015 RK277 [a=26.65,e=0.80,i=9.5,H=15.4]

mpec at mpcdb1.cfa.harvard.edu mpec at mpcdb1.cfa.harvard.edu
Wed Aug 29 14:41:18 EDT 2018


M.P.E.C. 2018-Q93                                Issued 2018 Aug. 29, 18:38 UT
 
     The Minor Planet Electronic Circulars contain information on unusual
         minor planets and routine data on comets.  They are published
    on behalf of Division F of the International Astronomical Union by the
          Minor Planet Center, Smithsonian Astrophysical Observatory,
                          Cambridge, MA 02138, U.S.A.

             Prepared using the Tamkin Foundation Computer Network

                              MPC at CFA.HARVARD.EDU
            URL https://www.minorplanetcenter.net/    ISSN 1523-6714


                                  2015 RK277
 
Observations:
     K15RR7K @C2015 06 23.51987 00 31 02.996+05 59 14.89         24.1 rqEQ093568
     K15RR7K @C2015 07 19.52115 00 37 52.516+06 32 11.78         23.8 rqEQ093568
     K15RR7K @C2015 08 13.54973 00 39 01.706+06 26 21.35         23.0 rqEQ093568
     K15RR7K @C2015 08 19.55891 00 38 29.010+06 19 05.46         23.4 rqEQ093568
     K15RR7K @C2015 08 19.62908 00 38 28.502+06 18 59.65         23.3 rqEQ093568
     K15RR7K @C2015 08 20.43431 00 38 22.827+06 17 50.70         23.4 rqEQ093568
     K15RR7K @C2015 08 20.48358 00 38 22.436+06 17 46.54         23.2 rqEQ093568
     K15RR7K @C2015 09 07.57262 00 34 54.515+05 42 14.00         23.5 wqEQ093568
     K15RR7K*@C2015 09 09.40034 00 34 26.313+05 37 41.93         23.3 rqEQ093568
     K15RR7K @C2015 09 09.44140 00 34 25.640+05 37 35.73         23.4 rqEQ093568
     K15RR7K @C2015 09 09.48235 00 34 24.965+05 37 29.56         23.4 rqEQ093568
     K15RR7K @C2015 09 10.50662 00 34 08.582+05 34 52.89         23.5 wqEQ093568
     K15RR7K @C2015 09 16.45837 00 32 27.294+05 18 51.70         23.3 wqEQ093568
     K15RR7K @C2015 09 18.45683 00 31 51.232+05 13 11.22         23.4 wqEQ093568
     K15RR7K @C2015 09 18.49368 00 31 50.553+05 13 05.05         23.0 wqEQ093568
     K15RR7K @C2015 10 03.37463 00 27 03.471+04 27 45.98         23.3 wqEQ093568
     K15RR7K @C2015 10 07.34146 00 25 45.234+04 15 13.13         22.7 rqEQ093568
     K15RR7K @C2015 10 07.35041 00 25 45.055+04 15 11.42         22.8 rqEQ093568
     K15RR7K @C2015 10 07.39952 00 25 44.064+04 15 02.11         22.9 rqEQ093568
     K15RR7K @C2015 11 07.21826 00 17 29.020+02 47 20.18         23.4 wqEQ093568
     K15RR7K @C2015 11 07.27072 00 17 28.446+02 47 13.12         23.5 wqEQ093568
     K15RR7K @C2015 11 08.31542 00 17 17.874+02 44 53.54         23.4 wqEQ093568
     K15RR7K @C2015 11 10.34786 00 16 58.878+02 40 32.02         23.4 wqEQ093568
     K15RR7K @C2015 12 07.28927 00 16 28.624+02 07 34.63         23.7 wqEQ093568
     K15RR7K @C2016 01 01.22912 00 22 32.354+02 21 52.80         24.0 wqEQ093568
     K15RR7K @C2016 09 05.55814 03 13 07.252+13 25 21.24               qEQ093568
     K15RR7K @C2016 09 06.50690 03 13 16.089+13 24 10.85               qEQ093568
     K15RR7K @C2016 09 06.54949 03 13 16.439+13 24 07.66               qEQ093568
     K15RR7K @C2016 09 27.46148 03 13 52.978+12 47 17.05         23.2 wqEQ093568
     K15RR7K @C2016 10 26.50481 03 07 21.407+11 30 43.85               qEQ093568
     K15RR7K @C2016 10 26.50990 03 07 21.287+11 30 42.82               qEQ093568
     K15RR7K @C2016 10 26.51417 03 07 21.243+11 30 42.30               qEQ093568
     K15RR7K @C2016 10 26.51845 03 07 21.094+11 30 41.17               qEQ093568
     K15RR7K @C2016 10 26.52700 03 07 20.945+11 30 40.12               qEQ093568
     K15RR7K @C2016 10 26.53127 03 07 20.856+11 30 39.18               qEQ093568
     K15RR7K @C2016 10 26.53560 03 07 20.748+11 30 38.58               qEQ093568
     K15RR7K @C2016 10 26.53988 03 07 20.674+11 30 37.21               qEQ093568
     K15RR7K @C2016 10 26.54416 03 07 20.613+11 30 37.18               qEQ093568
     K15RR7K @C2016 10 26.54843 03 07 20.509+11 30 36.42               qEQ093568
     K15RR7K @C2016 10 26.55273 03 07 20.425+11 30 35.74               qEQ093568
     K15RR7K @C2016 10 26.56130 03 07 20.223+11 30 33.86               qEQ093568
     K15RR7K @C2016 10 26.56557 03 07 20.176+11 30 33.45               qEQ093568
     K15RR7K @C2016 10 26.57063 03 07 20.036+11 30 32.36               qEQ093568
     K15RR7K @C2016 11 03.50445 03 04 35.019+11 07 56.80               qEQ093568
     K15RR7K @C2016 11 03.56832 03 04 33.600+11 07 46.01         22.8 wqEQ093568
     K15RR7K @C2016 12 28.37745 02 50 26.331+09 34 54.05               qEQ093568
     K15RR7K @C2016 12 29.34301 02 50 25.079+09 34 52.56               qEQ093568
     K15RR7K @C2017 01 01.23830 02 50 25.263+09 35 10.82               qEQ093568
     K15RR7K @C2017 01 01.30511 02 50 25.287+09 35 11.60               qEQ093568
     K15RR7K @C2017 01 02.35003 02 50 26.804+09 35 26.74               qEQ093568
 
Observer details:
568 Mauna Kea.  Observers M. T. Bannister, J. J. Kavelaars, B. J. Gladman,
    J.-M. Petit, T. Burdullis.  Measurers S. D. J. Gwyn, Y.-T. Chen,
    M. Alexandersen, M. Schwamb.  3.6-m Canada-France-Hawaii Telescope + CCD.
 
Orbital elements:
2015 RK277
Epoch 2018 Mar. 23.0 TT = JDT 2458200.5                 MPC
M   3.06091              (2000.0)            P               Q
n   0.00716376     Peri.  219.22177     +0.58258204     -0.81159318
a  26.6507170      Node   195.30846     +0.78116541     +0.57398232
e   0.8010357      Incl.    9.54001     +0.22445213     +0.10890731
P 137.58           H   15.4           G   0.15           U   1
Residuals in seconds of arc
150623 568  0.2+  0.0     151007 568  0.1-  0.1-    161026 568  0.0   0.1-
150719 568  0.0   0.1-    151007 568  0.0   0.1-    161026 568  0.3-  0.1+
150813 568  0.4+  0.0     151107 568  0.1-  0.0     161026 568  0.1-  0.6-
150819 568  0.3-  0.0     151107 568  0.0   0.0     161026 568  0.3+  0.1+
150819 568  0.0   0.1+    151108 568  0.2+  0.1+    161026 568  0.1+  0.1+
150820 568  0.0   0.1-    151110 568  0.1+  0.1+    161026 568  0.1+  0.2+
150820 568  0.0   0.0     151207 568  0.0   0.0     161026 568  0.2-  0.2-
150907 568  0.1+  0.1+    160101 568  0.2+  0.1+    161026 568  0.4+  0.1+
150909 568  0.1-  0.1+    160905 568  0.1+  0.1+    161026 568  0.2-  0.1-
150909 568  0.1-  0.1+    160906 568  0.0   0.0     161103 568  0.1+  0.1+
150909 568  0.1-  0.1+    160906 568  0.1-  0.0     161103 568  0.1+  0.1+
150910 568  0.0   0.0     160927 568  0.0   0.0     161228 568  0.0   0.0
150916 568  0.1-  0.1+    161026 568  0.1+  0.0     161229 568  0.1-  0.0
150918 568  0.1-  0.1-    161026 568  0.2-  0.1-    170101 568  0.1-  0.1+
150918 568  0.2+  0.0     161026 568  0.5+  0.1+    170101 568  0.0   0.1+
151003 568  0.1-  0.1-    161026 568  0.4-  0.3-    170102 568  0.0   0.1+
151007 568  0.1-  0.1-    161026 568  0.0   0.1+

Ephemeris:
2015 RK277               a,e,i = 26.65, 0.80, 10                 q = 5.3025
Date    TT    R. A. (2000) Decl.     Delta      r     Elong.  Phase     V
2018 07 30    07 21 07.1 +13 45 25   7.3836  6.4293    18.6     2.9    24.1
...
2018 08 14    07 32 15.0 +13 14 40   7.3467  6.4829    29.4     4.4    24.2
...
2018 08 22    07 37 50.3 +12 56 39   7.3095  6.5118    35.4     5.2    24.2
...
2018 08 28    07 41 50.4 +12 42 33   7.2741  6.5336    40.1     5.7    24.2
2018 08 29    07 42 29.4 +12 40 10   7.2676  6.5373    40.9     5.8    24.2
2018 08 30    07 43 08.1 +12 37 46   7.2610  6.5409    41.6     5.9    24.2
...
2018 09 05    07 46 53.4 +12 23 11   7.2176  6.5629    46.4     6.4    24.3
...
2018 09 13    07 51 34.6 +12 03 23   7.1511  6.5923    52.9     7.0    24.3
...
2018 09 28    07 59 13.6 +11 26 07   7.0035  6.6481    65.3     7.9    24.3

A. U. Tomatic                (C) Copyright 2018 MPC           M.P.E.C. 2018-Q93



More information about the Iaude mailing list